Location: Krasnoyarskiy Pitomnik
(51.1333°N, 71.6167°E)
Time: 18:40:31
(UTC+00:00)

Vanguard 2 - Pass Details

Date: 24 April 2024
Orbit: 553 x 2914 km, 32.9° (Epoch: 22 May)

Event Time Altitude Azimuth Distance (km) Brightness Sun altitude
Exits shadow 22:18:10 15° 240° (WSW) 4,847 11.0 -13.9°
Maximum altitude 22:30:30 40° 183° (S) 3,785 10.7 -12.5°
Drops below altitude 10° 22:45:47 10° 123° (ESE) 5,559 12.2 -10.6°
Sets 22:50:12 0° 117° (ESE) 6,395 12.6 -10.0°
